Location: Zagreb
(45.8000°N, 16.0000°E)
Time: 20:00:38
(UTC+01:00)

YUBILEINY - Pass Details

Date: 09 November 2020
Orbit: 1478 x 1509 km, 82.5° (Epoch: 01 December)

Event Time Altitude Azimuth Distance (km) Brightness Sun altitude
Rises 17:34:19 0° 358° (N) 4,610 ? -11.2°
Reaches altitude 10° 17:41:21 10° 37° (NE) 3,627 ? -12.4°
Maximum altitude 17:42:42 10° 46° (NE) 3,596 ? -12.7°
Enters shadow 17:43:15 10° 50° (NE) 3,601 ? -12.8°
